Overview Statistics Trail Chart Weather Telemetry Raw packets
 

This is the latest recevied weather packets stored in our database for station/object DK0KTL-4. If no packets are shown the sender has not sent any weather packets the latest 10 day(s).

<< 101 102 103 104 105 106 107 >>
Time Temp. Humidity Pressure Rain* Wind** Luminosity Snow
1787768305 17.78° C 82% 1017.6 hPa 0 mm - - -
1787768005 18.33° C 81% 1017.6 hPa 0 mm - - -
1787767705 18.33° C 81% 1017.5 hPa 0 mm - - -
1787767404 18.33° C 80% 1017.6 hPa 0 mm - - -
1787767104 18.89° C 79% 1017.5 hPa 0 mm - - -
1787766804 18.89° C 78% 1017.5 hPa 0 mm - - -
1787766503 19.44° C 78% 1017.5 hPa 0 mm - - -
1787766203 19.44° C 76% 1017.4 hPa 0 mm - - -
1787765903 20° C 75% 1017.4 hPa 0 mm - - -
1787765603 20.56° C 76% 1017.4 hPa 0 mm - - -
1787765302 20.56° C 76% 1017.3 hPa 0 mm - - -
1787765002 21.11° C 75% 1017.3 hPa 0 mm - - -
1787764702 21.11° C 74% 1017.5 hPa 0 mm - - -
1787764402 21.11° C 74% 1017.5 hPa 0 mm - - -
1787764101 21.11° C 75% 1017.6 hPa 0 mm - - -
1787763801 21.11° C 75% 1017.6 hPa 0 mm - - -
1787763501 21.11° C 74% 1017.5 hPa 0 mm - - -
1787763200 21.67° C 74% 1017.4 hPa 0 mm - - -
1787762900 21.67° C 74% 1017.6 hPa 0 mm - - -
1787762600 21.67° C 73% 1017.5 hPa 0 mm - - -
1787762299 21.67° C 73% 1017.6 hPa 0 mm - - -
1787761999 21.67° C 75% 1017.4 hPa 0 mm - - -
1787761699 21.11° C 79% 1017.6 hPa 0 mm - - -
1787761398 20.56° C 79% 1017.6 hPa 0 mm - - -
1787761098 20.56° C 79% 1017.8 hPa 0 mm - - -

* Rain latest hour (hover to see other rain measurements)
** Current wind speed in m/s (hover to see current wind gust speed)